Location: Unspecified
(42.3650°N, 71.1030°W)
Time: 14:59:53
(UTC+00:00)

Vanguard 3 - Pass Details

Date: 04 July 2024
Orbit: 508 x 3230 km, 33.4° (Epoch: 16 July)

Event Time Altitude Azimuth Distance (km) Brightness Sun altitude
Exits shadow 06:47:37 12° 176° (S) 5,961 11.0 -19.3°
Maximum altitude 06:58:50 21° 139° (SE) 5,192 11.0 -18.3°
Drops below altitude 10° 07:10:13 10° 99° (E) 5,629 11.7 -17.1°
Sets 07:15:40 0° 86° (E) 6,276 12.3 -16.5°
